Insat 1D

operational
NORAD ID: 20643 Int'l Des: 1990-051 Owner: ISRO Country: IN
HEOCIRCULARGSO

Insat 1Dについて

説明を読み込み中...

リアルタイム位置

3D地球を読み込み中...

次回通過

高度履歴

Altitude vs Time

uPlot chart will show altitude changes over time

軌道要素

1 20643U 90051A 26062.49316522 -.00000168 00000-0 00000+0 0 9993
2 20643 14.6218 354.7743 0015136 197.8366 226.1740 1.00282552117699
Epoch: Mar 3, 2026 • Age: 31 hours

現在のステータス

高度 35840.9 km
速度 3.07 km/s
衛星直下点 -2.18°S, 80.37°E
打ち上げ日 Jun 12, 1990
運用期間 35.7 years
タイプ other

技術仕様

分類 Payload
質量 1190.00 kg
乾燥質量 550.00 kg
総質量 1190.00 kg
長さ 2.20 m
直径 1.60 m
スパン 19.40 m
形状 Box + Pan + Ant
製造者 FORDA
バスタイプ Insat 1
フェーズステータス In Orbit
所有者/国 ISRO/IN

大規模コンステレーション

Loading constellations...